FW1251 Weather Reports


time (UTC)temp
F
wind
direction
speed
knots
gust
knots
rain 1hr
in
rain 24hr
in
rain mn
in
humidity
%
barometer
mb
20260510203101 84 160 0.9 2.6 0.00 0.03 0.02 83 1017.2
20260510201600 83 236 0.0 2.6 0.00 0.03 0.02 81 1017.2
20260510200101 84 172 0.9 3.5 0.00 0.03 0.02 82 1017.2
20260510194607 84 177 0.9 4.3 0.00 0.03 0.02 83 1017.1
20260510193056 82 182 0.9 3.5 0.00 0.03 0.02 82 1017.3
20260510191609 83 163 0.0 3.5 0.01 0.03 0.02 84 1017.5
20260510190101 82 42 0.0 3.5 0.01 0.03 0.02 82 1017.6
20260510184554 82 286 0.0 2.6 0.01 0.03 0.02 83 1017.7
20260510183053 82 348 0.0 3.5 0.01 0.03 0.02 84 1017.9
20260510181554 83 340 0.9 3.5 0.00 0.02 0.01 83 1018.1
20260510180103 82 94 0.9 5.2 0.00 0.02 0.01 83 1018.4
20260510174547 81 5 0.9 3.5 0.00 0.02 0.01 85 1018.5
20260510173045 80 198 0.9 4.3 0.00 0.02 0.01 86 1018.6
20260510171543 80 144 0.0 4.3 0.00 0.02 0.01 88 1018.7
20260510170042 79 36 1.7 3.5 0.00 0.02 0.01 88 1019.0
20260510164539 78 186 0.9 3.5 0.00 0.02 0.01 89 1018.9
20260510163043 77 20 0.9 4.3 0.00 0.02 0.01 89 1018.9
20260510161533 76 360 0.9 5.2 0.00 0.02 0.01 90 1019.1
20260510160033 75 131 0.9 4.3 0.00 0.02 0.01 91 1019.2
20260510154524 74 82 0.0 4.3 0.00 0.02 0.01 92 1019.1
20260510153019 73 30 0.9 2.6 0.00 0.02 0.01 94 1019.2
20260510151518 72 192 0.9 2.6 0.00 0.02 0.01 96 1019.0
20260510150014 70 271 1.7 5.2 0.00 0.02 0.01 96 1019.1
20260510144514 70 360 0.9 2.6 0.00 0.02 0.01 96 1019.2
20260510143016 69 193 0.9 2.6 0.00 0.02 0.01 96 1019.4
20260510141512 69 172 0.0 2.6 0.00 0.02 0.01 96 1019.4
20260510140006 68 360 0.9 3.5 0.00 0.02 0.01 96 1019.2
20260510134504 68 360 0.0 3.5 0.00 0.02 0.01 96 1019.0
20260510133003 68 360 0.0 1.7 0.00 0.02 0.01 96 1019.1
20260510131500 67 360 0.0 1.7 0.00 0.02 0.01 96 1018.8
20260510124558 66 178 0.0 0.9 0.00 0.02 0.01 96 1018.7
20260510123056 65 200 0.9 2.6 0.01 0.02 0.01 96 1018.2
20260510121555 65 355 0.0 0.9 0.01 0.02 0.01 96 1018.3
20260510120053 65 304 0.0 0.9 0.01 0.02 0.01 96 1018.1
20260510114550 65 188 0.0 1.7 0.01 0.02 0.01 96 1017.6
20260510113049 64 192 0.0 1.7 0.00 0.01 0.00 96 1017.2
20260510111554 64 172 0.0 0.9 0.00 0.01 0.00 96 1016.9
20260510110051 64 172 0.0 0.0 0.00 0.01 0.00 96 1016.6
20260510104550 64 172 0.0 1.7 0.00 0.01 0.00 96 1016.3
20260510103048 64 21 0.0 0.9 0.00 0.01 0.00 96 1016.0
20260510101541 64 21 0.0 0.9 0.00 0.01 0.00 96 1016.0
20260510100040 65 21 0.0 0.9 0.00 0.01 0.00 96 1015.8
20260510094538 65 21 0.0 0.9 0.00 0.02 0.00 96 1015.7
20260510093043 65 21 0.0 1.7 0.00 0.02 0.00 96 1015.8
20260510091537 65 21 0.0 1.7 0.00 0.02 0.00 96 1015.9
20260510090037 66 20 0.0 2.6 0.00 0.02 0.00 96 1016.0
20260510084536 66 341 0.0 1.7 0.00 0.02 0.00 96 1015.9
20260510083039 66 341 0.0 0.9 0.00 0.02 0.00 96 1015.7
20260510081541 66 341 0.0 2.6 0.00 0.02 0.00 96 1015.7
20260510080033 66 157 0.0 0.9 0.00 0.02 0.00 96 1015.5
20260510074532 66 157 0.0 0.9 0.00 0.02 0.00 96 1015.2
20260510073037 66 157 0.0 1.7 0.00 0.02 0.00 96 1015.2
20260510071530 66 157 0.0 0.0 0.00 0.02 0.00 96 1015.4
20260510070029 66 157 0.0 1.7 0.00 0.02 0.00 96 1015.4
20260510064542 67 126 0.0 0.9 0.00 0.02 0.00 96 1015.7
20260510063038 67 215 0.9 1.7 0.00 0.02 0.00 96 1015.5
20260510061532 67 40 0.0 1.7 0.00 0.02 0.00 96 1015.5
20260510060038 67 42 0.0 1.7 0.00 0.02 0.00 96 1015.7
20260510054526 67 251 0.0 0.9 0.00 0.02 0.00 96 1015.6
20260510053036 67 222 0.0 0.9 0.00 0.02 0.00 96 1015.9
20260510051524 67 222 0.0 0.9 0.00 0.02 0.00 96 1015.8
20260510050019 67 222 0.0 0.9 0.00 0.02 0.02 96 1015.8
20260510044539 67 222 0.0 0.9 0.00 0.02 0.02 96 1015.4
20260510043018 67 312 0.0 1.7 0.00 0.02 0.02 96 1015.1
20260510041517 67 227 0.9 1.7 0.00 0.02 0.02 96 1014.8
20260510040030 68 346 0.0 0.9 0.00 0.02 0.02 96 1015.7
20260510034517 68 347 0.0 0.0 0.00 0.02 0.02 96 1016.4
20260510033015 68 346 0.0 1.7 0.00 0.02 0.02 96 1016.5
20260510031515 68 346 0.0 0.9 0.00 0.02 0.02 96 1016.2
20260510030016 68 346 0.0 0.0 0.00 0.02 0.02 96 1016.2
20260510024514 68 346 0.0 0.9 0.00 0.02 0.02 96 1016.1
20260510023013 68 346 0.0 1.7 0.00 0.02 0.02 96 1016.2
20260510021514 68 342 0.9 2.6 0.00 0.02 0.02 96 1015.4
20260510020019 68 26 1.7 4.3 0.00 0.02 0.02 96 1015.2
20260510014512 68 180 0.0 4.3 0.00 0.02 0.02 96 1014.6
20260510013011 67 44 0.0 2.6 0.00 0.02 0.02 96 1014.9
20260510011515 67 235 0.0 2.6 0.00 0.02 0.02 96 1014.0
20260510010010 67 341 0.0 0.9 0.01 0.02 0.02 96 1014.4
20260510004510 67 341 0.0 1.7 0.01 0.02 0.02 96 1014.9
20260510003010 68 341 0.0 1.7 0.01 0.02 0.02 96 1014.8
20260510001509 68 10 0.0 0.9 0.01 0.02 0.02 95 1014.7
20260510000016 68 155 0.0 0.9 0.00 0.01 0.01 96 1014.9
20260509234511 68 155 0.0 0.9 0.00 0.01 0.01 96 1015.0
20260509233009 68 95 0.0 0.9 0.00 0.01 0.01 96 1015.4
20260509231507 68 95 0.0 0.9 0.00 0.01 0.01 96 1014.9
20260509230016 68 83 0.0 0.9 0.00 0.01 0.01 96 1014.2
20260509224506 68 134 0.0 0.9 0.00 0.01 0.01 96 1014.1
20260509223009 68 141 0.0 2.6 0.00 0.01 0.01 96 1014.9
20260509221506 68 190 0.0 3.5 0.00 0.01 0.01 95 1014.4
20260509220005 68 163 0.0 1.7 0.00 0.01 0.01 96 1014.4
20260509214505 68 148 0.0 0.9 0.00 0.01 0.01 96 1013.6
20260509213004 68 148 0.0 1.7 0.00 0.01 0.01 95 1013.3
20260509211504 68 28 0.0 1.7 0.00 0.01 0.01 96 1013.4
20260509210010 68 157 0.0 3.5 0.00 0.01 0.01 96 1013.1
20260509204503 68 196 0.0 2.6 0.00 0.01 0.01 96 1012.9